Regional Weather Roundup
Issued by NWS

Home | Current Version | Previous Version | Text Only | Print | Product List | Glossary Off
Versions: 1 2 3 4 5 6 7 8 9 10 11 12 13 14 15 16 17 18 19 20 21 22 23 24 25 26 27 28 29 30 31 32 33 34 35 36 37 38 39 40 41 42 43 44 45 46 47 48 49 50

000
ASUS43 KMKX 100311
RWRWI

WISCONSIN REGIONAL WEATHER ROUNDUP
NATIONAL WEATHER SERVICE MILWAUKEE/SULLIVAN WI
900 PM CST TUE FEB 09 2016

NOTE: "FAIR" INDICATES FEW OR NO CLOUDS BELOW 12,000 FEET WITH NO
SIGNIFICANT WEATHER AND/OR OBSTRUCTIONS TO VISIBILITY.

WIZ001-002-006>008-014>016-023>028-100400-
NORTHWEST WISCONSIN

CITY           SKY/WX    TMP DP  RH WIND       PRES   REMARKS
SUPERIOR ARPT  PTCLDY     5  -5  62 N7        30.16R WCI  -7
ASHLAND        CLOUDY     8   1  73 N12       30.09S WCI  -7
HAYWARD        MOCLDY     5  -4  66 VRB5      30.06S WCI  -4
SIREN          CLEAR      6  -6  59 NW6       30.11F WCI  -5
CUMBERLAND     CLEAR      5  -8  56 N9        30.06S WCI  -9
RICE LAKE      CLEAR      7  -6  56 NW8       30.08F WCI  -6
CHETEK         CLEAR      6  -5  60 MISG      30.07S
LADYSMITH      CLOUDY     9   0  66 N13       30.03F WCI  -6
EAU CLAIRE     CLEAR      9  -6  50 NW7       30.07R WCI  -2
MENOMONIE      CLEAR     10  -5  48 NW10      30.08S WCI  -3
NEW RICHMOND   CLEAR      7  -4  61 NW7       30.11S WCI  -5
OSCEOLA        CLEAR      9  -3  59 NW7       30.14F WCI  -3
$$

WIZ003>005-009-010-017-018-100400-
NORTH CENTRAL WISCONSIN

CITY           SKY/WX    TMP DP  RH WIND       PRES   REMARKS
MANITOWISH WTR LGT SNOW   7   3  83 N9        29.93S WCI  -7
ARBOR VITAE    FLURRIES  11   6  79 N10       29.92S WCI  -2
WOODRUFF       FLURRIES  11   6  79 N10       29.92S WCI  -2
RHINELANDER    CLOUDY     9   1  70 NW9       29.91R WCI  -4
EAGLE RIVER    CLOUDY     8   1  74 N13       29.90R WCI  -8
LAND O LAKES   LGT SNOW   8   3  80 N13       29.91R WCI  -8
PHILLIPS       CLOUDY     7   0  73 NW9G16    29.97S WCI  -7
TOMAHAWK       CLOUDY     8   1  73 NW7       29.94S WCI  -4
MEDFORD        CLOUDY     8   0  68 N8G14     29.96R WCI  -4
MERRILL        CLOUDY     9   1  67 NW8G17    29.95S WCI  -3
$$

WIZ029-030-035-036-043>047-100400-
CENTRAL WISCONSIN

CITY           SKY/WX    TMP DP  RH WIND       PRES   REMARKS
WAUSAU         CLOUDY    11   0  61 NW15      29.94F WCI  -5
MOSINEE        CLOUDY     9   1  72 NW13G18   29.96F WCI  -7
MARSHFIELD     CLOUDY    10  -1  61 N10       29.97S WCI  -4
STEVENS POINT  CLOUDY     9  -1  63 NW9G16    29.97S WCI  -5
WAUPACA        CLOUDY    15   2  56 NW15G21   29.96F WCI   0
WAUTOMA        MOCLDY    12   0  59 N13G20    29.99S WCI  -3
WISC RAPIDS    CLOUDY    10  -2  58 N16G23    30.01R WCI  -7
CAMP DOUGLAS   PTCLDY     7   0  72 NW9       30.02R WCI  -7
$$

WIZ011>013-019>022-031-037>040-048>050-100400-
NORTHEAST WISCONSIN

CITY           SKY/WX    TMP DP  RH WIND       PRES   REMARKS
ANTIGO         CLOUDY     9   1  72 N14G23    29.90S WCI  -8
SHAWANO        CLOUDY    15   1  53 NW9G16    29.94F WCI   3
OCONTO         CLOUDY    13   4  67 NW13G20   29.93F WCI  -1
STURGEON BAY   CLOUDY    12   3  67 NW16G22   29.90F WCI  -4
GREEN BAY      FLURRIES  13   6  74 NW9       29.94S WCI   1
MANITOWOC      FLURRIES  14   7  73 NW16G26   29.92R WCI  -2
APPLETON       MOCLDY    12   1  62 NW20      29.92R WCI  -6
CLINTONVILLE   CLOUDY    14   1  57 N13G20    29.95F WCI   0
OSHKOSH        CLOUDY    14   3  61 N15       29.94R WCI  -1
$$

WIZ032>034-041-042-053>061-100400-
SOUTHWEST WISCONSIN

CITY           SKY/WX    TMP DP  RH WIND       PRES   REMARKS
LA CROSSE      CLEAR      7  -4  60 NW10      30.08R WCI  -8
SPARTA         CLEAR      0  -4  84 CALM      30.06R
VIROQUA        CLEAR      4  -4  68 NW8       30.00S WCI  -9
BOSCOBEL       CLEAR     11  -1  58 NW3       30.07R
PRAIRIE DU CHI CLEAR      9  -2  60 W7        30.09R WCI  -2
PLATTEVILLE    CLEAR     10   1  67 NW12      30.02R WCI  -5
$$

WIZ056-057-062-063-064-067-068-100400-
SOUTH CENTRAL WISCONSIN

CITY           SKY/WX    TMP DP  RH WIND       PRES   REMARKS
REEDSBURG      MOCLDY    10   0  64 NW9       30.01R WCI  -4
BARABOO/DELLS  CLOUDY    10   0  62 NW10      29.99S WCI  -4
LONE ROCK      PTCLDY    11  -2  56 NW8       30.04S WCI  -1
MINERAL POINT  CLEAR     10   1  67 NW12      29.99R WCI  -4
MADISON        PTCLDY    11  -1  58 NW9       29.97F WCI  -2
MIDDLETON      CLOUDY    12   1  62 NW10      29.98F WCI  -1
WATERTOWN      CLOUDY    13   4  68 NW16G23   29.94S WCI  -3
MONROE         CLOUDY    12   1  62 NW14      29.96F WCI  -3
JANESVILLE     CLOUDY    16   3  57 NW17G23   29.96S WCI   0
$$

WIZ051-052-058>065-066-070>072-100400-
SOUTHEAST WISCONSIN

CITY           SKY/WX    TMP DP  RH WIND       PRES   REMARKS
MILWAUKEE      LGT SNOW  16  10  77 NW13      29.92S WCI   2
WAUKESHA       CLOUDY    12   7  79 NW16G23   29.93S WCI  -4
MILWAUKEE/TIMM LGT SNOW  16  10  79 NW12      29.93R WCI   3
RACINE         LGT SNOW  15   8  73 NW12      29.93S WCI   2
BURLINGTON     CLOUDY    12   4  69 NW17      29.94S WCI  -5
KENOSHA        LGT SNOW  14   8  77 NW15G23   29.92S WCI  -1
FOND DU LAC    PTCLDY    14   3  61 N16       29.94R WCI  -2
SHEBOYGAN      FLURRIES  15   7  70 NW14G22   29.91R WCI   0
WEST BEND      CLOUDY    16   9  73 N12       29.91S WCI   3
JUNEAU         CLOUDY    12   4  67 NW15G22   29.94F WCI  -4
$$

LSZ147-162-100400-
LAKE SUPERIOR

STATION/POSITION TIME  TEMP    WIND        PRES    WAVE
                       AIR SEA DIR/SP/G            HT/PER
                 (UTC) (F)     (DEG/KT/KT) (MB)    (FT/S)
DEVILS ISLAND    0300    8     350/ 17/ 24 1021.0S
PORT WING        0240    9     350/ 16/ 25 1020.0S
SAXON HARBOR     0240   11                 1017.9S
$$

LMZ867-665-643>646-100400-
LAKE MICHIGAN

STATION/POSITION TIME  TEMP    WIND        PRES    WAVE
                       AIR SEA DIR/SP/G            HT/PER
                 (UTC) (F)     (DEG/KT/KT) (MB)    (FT/S)
CHAMBERS ISLAND  0200   14     300/ 14/ 22 1012.2
ALGOMA LAKESHORE 0211          310/ 19/ 25   N/A
KEWAUNEE LAKESHO 0200   14     350/ 12/ 22 1012.0R
SHEBOYGAN LAKESH 0300   15     310/ 17/ 20 1014.4R
PORT WASHINGTON  0240   16     330/  7/ 11 1014.2R
MILWAUKEE LAKESH 0210   17     290/  9/ 12   N/A
KENOSHA   LAKESH 0300   15     300/ 17/ 21 1013.2S
$$

TC  - TEMPERATURE IN CELSIUS
VSB - VISIBILITY IN STATUTE MILES
WCI - WIND CHILL INDEX
HX  - HEAT INDEX




USA.gov is the U.S. government's official web portal to all federal, state and local government web resources and services.